| time (UTC) | temp F | wind direction | speed MPH | gust MPH | rain 1hr in | rain 24hr in | rain mn in | humidity % | barometer mb |
| 20260507115113 | 38 | 180 | 0.0 | 0.0 | 0.00 | 0.00 | 0.00 | 91 | 853.0 |
| 20260507114613 | 39 | 22 | 0.0 | 0.0 | 0.00 | 0.00 | 0.00 | 92 | 853.0 |
| 20260507114113 | 39 | 45 | 0.0 | 0.0 | 0.00 | 0.00 | 0.00 | 92 | 853.1 |
| 20260507113613 | 39 | 315 | 0.0 | 0.0 | 0.00 | 0.00 | 0.00 | 92 | 852.9 |
| 20260507113113 | 40 | 180 | 0.0 | 3.0 | 0.00 | 0.00 | 0.00 | 92 | 852.9 |
| 20260507112613 | 40 | 180 | 2.0 | 3.0 | 0.00 | 0.00 | 0.00 | 92 | 852.8 |
| 20260507112113 | 40 | 90 | 0.0 | 3.0 | 0.00 | 0.00 | 0.00 | 92 | 852.8 |
| 20260507111613 | 40 | 180 | 1.0 | 5.0 | 0.00 | 0.00 | 0.00 | 92 | 852.9 |
| 20260507111113 | 41 | 180 | 0.0 | 4.0 | 0.00 | 0.00 | 0.00 | 91 | 852.9 |
| 20260507110613 | 41 | 180 | 2.0 | 5.0 | 0.00 | 0.00 | 0.00 | 91 | 852.8 |
| 20260507110113 | 42 | 180 | 0.0 | 5.0 | 0.00 | 0.00 | 0.00 | 91 | 852.6 |
| 20260507105613 | 42 | 180 | 3.0 | 4.0 | 0.00 | 0.00 | 0.00 | 90 | 852.7 |
| 20260507105113 | 42 | 135 | 0.0 | 2.0 | 0.00 | 0.00 | 0.00 | 90 | 852.8 |
| 20260507104613 | 42 | 0 | 0.0 | 0.0 | 0.00 | 0.00 | 0.00 | 90 | 852.8 |
| 20260507104113 | 42 | 0 | 0.0 | 3.0 | 0.00 | 0.00 | 0.00 | 90 | 852.9 |
| 20260507103613 | 41 | 180 | 0.0 | 4.0 | 0.00 | 0.00 | 0.00 | 90 | 852.9 |
| 20260507103113 | 42 | 180 | 2.0 | 5.0 | 0.00 | 0.00 | 0.00 | 89 | 852.8 |
| 20260507102613 | 43 | 157 | 2.0 | 4.0 | 0.00 | 0.00 | 0.00 | 88 | 852.8 |
| 20260507102113 | 44 | 90 | 0.0 | 1.0 | 0.00 | 0.00 | 0.00 | 87 | 852.7 |
| 20260507101613 | 44 | 0 | 0.0 | 2.0 | 0.00 | 0.00 | 0.00 | 87 | 852.7 |
| 20260507101113 | 45 | 180 | 0.0 | 0.0 | 0.00 | 0.00 | 0.00 | 87 | 852.9 |
| 20260507100613 | 45 | 180 | 0.0 | 0.0 | 0.00 | 0.00 | 0.00 | 87 | 852.9 |
| 20260507100113 | 45 | 180 | 0.0 | 5.0 | 0.00 | 0.00 | 0.00 | 88 | 852.9 |
| 20260507095613 | 44 | 180 | 0.0 | 0.0 | 0.00 | 0.00 | 0.00 | 87 | 853.0 |
| 20260507095113 | 45 | 180 | 0.0 | 3.0 | 0.00 | 0.00 | 0.00 | 86 | 853.0 |
| 20260507094613 | 45 | 180 | 0.0 | 0.0 | 0.00 | 0.00 | 0.00 | 86 | 852.8 |
| 20260507094114 | 45 | 180 | 0.0 | 0.0 | 0.00 | 0.00 | 0.00 | 86 | 852.9 |
| 20260507093613 | 45 | 180 | 0.0 | 0.0 | 0.00 | 0.00 | 0.00 | 86 | 852.7 |
| 20260507093113 | 44 | 67 | 0.0 | 0.0 | 0.00 | 0.00 | 0.00 | 86 | 852.8 |
| 20260507092613 | 44 | 45 | 0.0 | 0.0 | 0.00 | 0.00 | 0.00 | 86 | 852.8 |
| 20260507092113 | 43 | 22 | 0.0 | 0.0 | 0.00 | 0.00 | 0.00 | 86 | 852.7 |
| 20260507091613 | 43 | 0 | 0.0 | 1.0 | 0.00 | 0.00 | 0.00 | 86 | 852.7 |
| 20260507091114 | 43 | 0 | 0.0 | 1.0 | 0.00 | 0.00 | 0.00 | 86 | 852.6 |
| 20260507090614 | 44 | 0 | 0.0 | 2.0 | 0.00 | 0.00 | 0.00 | 86 | 852.6 |
| 20260507090114 | 44 | 112 | 0.0 | 0.0 | 0.00 | 0.00 | 0.00 | 87 | 852.6 |
| 20260507085614 | 43 | 180 | 0.0 | 0.0 | 0.00 | 0.00 | 0.00 | 87 | 852.7 |
| 20260507085114 | 43 | 180 | 0.0 | 0.0 | 0.00 | 0.00 | 0.00 | 87 | 852.6 |
| 20260507084614 | 43 | 0 | 0.0 | 0.0 | 0.00 | 0.00 | 0.00 | 87 | 852.6 |
| 20260507084114 | 43 | 0 | 0.0 | 3.0 | 0.00 | 0.00 | 0.00 | 86 | 852.6 |
| 20260507083614 | 43 | 0 | 0.0 | 0.0 | 0.00 | 0.00 | 0.00 | 86 | 852.5 |
| 20260507083114 | 43 | 180 | 0.0 | 0.0 | 0.00 | 0.00 | 0.00 | 86 | 852.5 |
| 20260507082614 | 43 | 180 | 0.0 | 0.0 | 0.00 | 0.00 | 0.00 | 86 | 852.5 |
| 20260507082114 | 44 | 180 | 0.0 | 0.0 | 0.00 | 0.00 | 0.00 | 85 | 852.4 |
| 20260507081614 | 44 | 180 | 0.0 | 0.0 | 0.00 | 0.00 | 0.00 | 85 | 852.4 |
| 20260507081114 | 46 | 0 | 0.0 | 0.0 | 0.00 | 0.00 | 0.00 | 84 | 852.2 |
| 20260507080614 | 47 | 180 | 0.0 | 0.0 | 0.00 | 0.00 | 0.00 | 83 | 852.3 |
| 20260507080114 | 48 | 180 | 0.0 | 0.0 | 0.00 | 0.00 | 0.00 | 84 | 852.2 |
| 20260507075614 | 48 | 180 | 0.0 | 0.0 | 0.00 | 0.00 | 0.00 | 85 | 852.3 |
| 20260507075114 | 45 | 112 | 0.0 | 2.0 | 0.00 | 0.00 | 0.00 | 86 | 852.0 |
| 20260507074614 | 44 | 180 | 0.0 | 1.0 | 0.00 | 0.00 | 0.00 | 86 | 852.0 |
| 20260507074114 | 43 | 180 | 0.0 | 2.0 | 0.00 | 0.00 | 0.00 | 86 | 852.0 |
| 20260507073614 | 43 | 180 | 0.0 | 2.0 | 0.00 | 0.00 | 0.00 | 86 | 852.0 |
| 20260507073114 | 42 | 22 | 0.0 | 0.0 | 0.00 | 0.00 | 0.00 | 85 | 851.9 |
| 20260507072614 | 42 | 180 | 0.0 | 0.0 | 0.00 | 0.00 | 0.00 | 84 | 851.9 |
| 20260507072114 | 42 | 157 | 0.0 | 0.0 | 0.00 | 0.00 | 0.00 | 84 | 851.9 |
| 20260507071614 | 42 | 180 | 0.0 | 0.0 | 0.00 | 0.00 | 0.00 | 83 | 851.9 |
| 20260507071114 | 43 | 180 | 0.0 | 0.0 | 0.00 | 0.00 | 0.00 | 82 | 851.8 |
| 20260507070614 | 43 | 202 | 0.0 | 0.0 | 0.00 | 0.00 | 0.00 | 82 | 851.8 |
| 20260507070114 | 44 | 202 | 0.0 | 0.0 | 0.00 | 0.00 | 0.00 | 82 | 851.7 |
| 20260507065614 | 44 | 202 | 0.0 | 0.0 | 0.00 | 0.00 | 0.00 | 80 | 851.7 |
| 20260507065114 | 45 | 225 | 0.0 | 0.0 | 0.00 | 0.00 | 0.00 | 79 | 851.6 |
| 20260507064614 | 46 | 225 | 0.0 | 0.0 | 0.00 | 0.00 | 0.00 | 79 | 851.6 |
| 20260507064114 | 47 | 225 | 0.0 | 0.0 | 0.00 | 0.00 | 0.00 | 79 | 851.6 |
| 20260507063614 | 47 | 225 | 0.0 | 0.0 | 0.00 | 0.00 | 0.00 | 80 | 851.6 |
| 20260507063114 | 47 | 225 | 0.0 | 0.0 | 0.00 | 0.00 | 0.00 | 80 | 851.6 |
| 20260507062614 | 47 | 225 | 0.0 | 0.0 | 0.00 | 0.00 | 0.00 | 80 | 851.6 |
| 20260507062114 | 47 | 225 | 0.0 | 0.0 | 0.00 | 0.00 | 0.00 | 80 | 851.5 |
| 20260507061614 | 46 | 315 | 0.0 | 0.0 | 0.00 | 0.00 | 0.00 | 81 | 851.6 |
| 20260507061114 | 46 | 270 | 0.0 | 0.0 | 0.00 | 0.00 | 0.00 | 81 | 851.5 |
| 20260507060614 | 45 | 270 | 0.0 | 0.0 | 0.00 | 0.00 | 0.00 | 81 | 851.5 |
| 20260507060114 | 44 | 315 | 0.0 | 0.0 | 0.00 | 0.00 | 0.00 | 81 | 851.4 |
| 20260507055614 | 44 | 315 | 0.0 | 0.0 | 0.00 | 0.00 | 0.00 | 80 | 851.3 |
| 20260507055114 | 44 | 315 | 0.0 | 0.0 | 0.00 | 0.00 | 0.00 | 81 | 851.3 |
| 20260507054614 | 44 | 337 | 0.0 | 0.0 | 0.00 | 0.00 | 0.00 | 81 | 851.2 |
| 20260507054114 | 45 | 337 | 0.0 | 0.0 | 0.00 | 0.00 | 0.00 | 81 | 851.3 |
| 20260507053614 | 45 | 0 | 0.0 | 0.0 | 0.00 | 0.00 | 0.00 | 81 | 851.3 |
| 20260507053114 | 47 | 315 | 0.0 | 0.0 | 0.00 | 0.00 | 0.00 | 80 | 851.3 |
| 20260507052614 | 48 | 315 | 0.0 | 0.0 | 0.00 | 0.00 | 0.00 | 79 | 851.3 |
| 20260507052114 | 50 | 315 | 0.0 | 0.0 | 0.00 | 0.00 | 0.00 | 80 | 851.1 |
| 20260507051614 | 50 | 315 | 0.0 | 0.0 | 0.00 | 0.00 | 0.00 | 81 | 851.1 |
| 20260507051114 | 49 | 270 | 0.0 | 0.0 | 0.00 | 0.00 | 0.00 | 84 | 851.0 |
| 20260507050614 | 47 | 337 | 0.0 | 0.0 | 0.00 | 0.00 | 0.00 | 86 | 851.0 |
| 20260507050114 | 46 | 337 | 0.0 | 0.0 | 0.00 | 0.00 | 0.00 | 88 | 850.9 |
| 20260507045614 | 42 | 315 | 0.0 | 0.0 | 0.00 | 0.00 | 0.00 | 91 | 850.8 |
| 20260507045114 | 39 | 315 | 0.0 | 0.0 | 0.00 | 0.00 | 0.00 | 91 | 850.9 |
| 20260507044614 | 38 | 337 | 0.0 | 0.0 | 0.00 | 0.00 | 0.00 | 91 | 850.8 |
| 20260507044114 | 37 | 337 | 0.0 | 0.0 | 0.00 | 0.00 | 0.00 | 91 | 850.8 |
| 20260507043614 | 37 | 337 | 0.0 | 0.0 | 0.00 | 0.00 | 0.00 | 91 | 850.7 |
| 20260507043114 | 37 | 337 | 0.0 | 0.0 | 0.00 | 0.00 | 0.00 | 92 | 850.7 |
| 20260507042614 | 36 | 337 | 0.0 | 0.0 | 0.00 | 0.00 | 0.00 | 92 | 850.7 |
| 20260507042114 | 35 | 337 | 0.0 | 0.0 | 0.00 | 0.00 | 0.00 | 92 | 850.7 |
| 20260507041614 | 35 | 337 | 0.0 | 0.0 | 0.00 | 0.00 | 0.00 | 92 | 850.6 |
| 20260507041114 | 34 | 337 | 0.0 | 0.0 | 0.00 | 0.00 | 0.00 | 92 | 850.6 |
| 20260507040614 | 34 | 315 | 0.0 | 0.0 | 0.00 | 0.00 | 0.00 | 91 | 850.6 |
| 20260507040114 | 34 | 315 | 0.0 | 0.0 | 0.00 | 0.00 | 0.00 | 91 | 850.7 |
| 20260507035614 | 34 | 337 | 0.0 | 0.0 | 0.00 | 0.00 | 0.00 | 91 | 850.7 |
| 20260507035114 | 34 | 337 | 0.0 | 0.0 | 0.00 | 0.00 | 0.00 | 91 | 850.7 |
| 20260507034614 | 34 | 270 | 0.0 | 0.0 | 0.00 | 0.00 | 0.00 | 90 | 850.6 |
| 20260507034114 | 34 | 202 | 0.0 | 0.0 | 0.00 | 0.00 | 0.00 | 90 | 850.6 |
| 20260507033614 | 34 | 202 | 0.0 | 0.0 | 0.00 | 0.00 | 0.00 | 90 | 850.6 |
| 20260507033114 | 34 | 270 | 0.0 | 0.0 | 0.00 | 0.00 | 0.00 | 90 | 850.7 |
| 20260507032614 | 34 | 315 | 0.0 | 0.0 | 0.00 | 0.00 | 0.00 | 90 | 850.7 |
| 20260507032114 | 34 | 315 | 0.0 | 0.0 | 0.00 | 0.00 | 0.00 | 90 | 850.6 |
| 20260507031614 | 34 | 315 | 0.0 | 0.0 | 0.00 | 0.00 | 0.00 | 89 | 850.6 |
| 20260507031114 | 34 | 292 | 0.0 | 0.0 | 0.00 | 0.00 | 0.00 | 89 | 850.6 |
| 20260507030614 | 34 | 337 | 0.0 | 0.0 | 0.00 | 0.00 | 0.00 | 88 | 850.7 |
| 20260507030114 | 34 | 337 | 0.0 | 0.0 | 0.00 | 0.00 | 0.00 | 88 | 850.7 |
| 20260507025614 | 34 | 315 | 0.0 | 0.0 | 0.00 | 0.00 | 0.00 | 87 | 850.7 |
| 20260507025114 | 34 | 315 | 0.0 | 0.0 | 0.00 | 0.00 | 0.00 | 87 | 850.6 |
| 20260507024614 | 35 | 315 | 0.0 | 0.0 | 0.00 | 0.00 | 0.00 | 86 | 850.6 |
| 20260507024114 | 35 | 270 | 0.0 | 0.0 | 0.00 | 0.00 | 0.00 | 86 | 850.7 |
| 20260507023614 | 35 | 292 | 0.0 | 0.0 | 0.00 | 0.00 | 0.00 | 86 | 850.7 |
| 20260507023114 | 35 | 247 | 0.0 | 0.0 | 0.00 | 0.00 | 0.00 | 86 | 850.7 |
| 20260507022614 | 35 | 292 | 0.0 | 0.0 | 0.00 | 0.00 | 0.00 | 86 | 850.7 |
| 20260507022114 | 35 | 292 | 0.0 | 0.0 | 0.00 | 0.00 | 0.00 | 86 | 850.6 |
| 20260507021614 | 35 | 292 | 0.0 | 0.0 | 0.00 | 0.00 | 0.00 | 86 | 850.7 |
| 20260507021115 | 35 | 270 | 0.0 | 0.0 | 0.00 | 0.00 | 0.00 | 86 | 850.8 |
| 20260507020614 | 35 | 270 | 0.0 | 0.0 | 0.00 | 0.00 | 0.00 | 86 | 850.9 |
| 20260507020114 | 35 | 270 | 0.0 | 0.0 | 0.00 | 0.00 | 0.00 | 86 | 850.8 |
| 20260507015614 | 35 | 292 | 0.0 | 0.0 | 0.00 | 0.00 | 0.00 | 87 | 850.8 |
| 20260507015114 | 34 | 292 | 0.0 | 0.0 | 0.00 | 0.00 | 0.00 | 88 | 850.7 |
| 20260507014614 | 34 | 315 | 0.0 | 0.0 | 0.00 | 0.00 | 0.00 | 88 | 850.8 |
| 20260507014114 | 34 | 180 | 0.0 | 0.0 | 0.00 | 0.00 | 0.00 | 89 | 850.8 |
| 20260507013614 | 34 | 292 | 0.0 | 0.0 | 0.00 | 0.00 | 0.00 | 89 | 850.8 |
| 20260507013114 | 34 | 292 | 0.0 | 0.0 | 0.00 | 0.00 | 0.00 | 89 | 850.8 |
| 20260507012614 | 34 | 270 | 0.0 | 0.0 | 0.00 | 0.00 | 0.00 | 88 | 850.7 |
| 20260507012114 | 35 | 0 | 0.0 | 0.0 | 0.00 | 0.00 | 0.00 | 88 | 851.0 |
| 20260507011614 | 35 | 45 | 0.0 | 0.0 | 0.00 | 0.00 | 0.00 | 88 | 851.0 |
| 20260507011114 | 35 | 157 | 0.0 | 4.0 | 0.00 | 0.00 | 0.00 | 87 | 851.0 |
| 20260507010614 | 35 | 180 | 0.0 | 2.0 | 0.00 | 0.00 | 0.00 | 87 | 851.0 |
| 20260507010114 | 35 | 22 | 0.0 | 5.0 | 0.00 | 0.00 | 0.00 | 86 | 850.8 |
| 20260507005614 | 36 | 45 | 0.0 | 5.0 | 0.00 | 0.00 | 0.00 | 86 | 850.9 |
| 20260507005114 | 36 | 337 | 2.0 | 4.0 | 0.00 | 0.00 | 0.00 | 85 | 850.8 |
| 20260507004614 | 36 | 270 | 0.0 | 6.0 | 0.00 | 0.00 | 0.00 | 85 | 851.0 |
| 20260507004114 | 36 | 180 | 6.0 | 6.0 | 0.00 | 0.00 | 0.00 | 85 | 850.9 |
| 20260507003614 | 36 | 180 | 4.0 | 8.0 | 0.00 | 0.00 | 0.00 | 85 | 850.9 |
| 20260507003114 | 36 | 0 | 0.0 | 6.0 | 0.00 | 0.00 | 0.00 | 85 | 850.9 |
| 20260507002614 | 36 | 315 | 0.0 | 6.0 | 0.00 | 0.00 | 0.00 | 84 | 851.0 |
| 20260507002114 | 36 | 112 | 0.0 | 6.0 | 0.00 | 0.00 | 0.00 | 85 | 850.9 |
| 20260507001614 | 36 | 337 | 0.0 | 4.0 | 0.00 | 0.00 | 0.00 | 85 | 851.1 |
| 20260507001114 | 36 | 0 | 4.0 | 5.0 | 0.00 | 0.00 | 0.00 | 85 | 851.0 |
| 20260507000614 | 36 | 247 | 0.0 | 4.0 | 0.00 | 0.00 | 0.00 | 86 | 851.0 |
| 20260507000114 | 36 | 337 | 0.0 | 6.0 | 0.00 | 0.00 | 0.00 | 89 | 851.0 |
| 20260506235614 | 36 | 0 | 1.0 | 5.0 | 0.00 | 0.00 | 0.00 | 89 | 851.1 |
| 20260506235114 | 36 | 337 | 0.0 | 7.0 | 0.00 | 0.00 | 0.00 | 90 | 851.2 |
| 20260506234614 | 36 | 202 | 1.0 | 5.0 | 0.00 | 0.00 | 0.00 | 90 | 851.2 |
| 20260506234114 | 36 | 337 | 0.0 | 3.0 | 0.00 | 0.00 | 0.00 | 90 | 851.2 |
| 20260506233614 | 36 | 45 | 0.0 | 0.0 | 0.00 | 0.00 | 0.00 | 91 | 851.1 |
| 20260506233114 | 36 | 0 | 0.0 | 1.0 | 0.00 | 0.00 | 0.00 | 91 | 851.1 |
| 20260506232614 | 36 | 0 | 0.0 | 1.0 | 0.00 | 0.00 | 0.00 | 91 | 851.0 |
| 20260506232114 | 36 | 202 | 0.0 | 5.0 | 0.00 | 0.00 | 0.00 | 91 | 851.1 |
| 20260506231614 | 36 | 292 | 0.0 | 6.0 | 0.00 | 0.00 | 0.00 | 91 | 851.1 |
| 20260506231114 | 36 | 337 | 0.0 | 6.0 | 0.00 | 0.00 | 0.00 | 91 | 851.3 |
| 20260506230614 | 36 | 225 | 3.0 | 3.0 | 0.00 | 0.00 | 0.00 | 91 | 851.2 |
| 20260506230114 | 36 | 135 | 0.0 | 8.0 | 0.00 | 0.00 | 0.00 | 91 | 851.2 |
| 20260506225615 | 37 | 157 | 0.0 | 9.0 | 0.00 | 0.00 | 0.00 | 91 | 851.1 |
| 20260506225114 | 37 | 135 | 0.0 | 6.0 | 0.00 | 0.00 | 0.00 | 93 | 851.2 |
| 20260506224615 | 37 | 180 | 5.0 | 10.0 | 0.00 | 0.00 | 0.00 | 94 | 851.3 |
| 20260506224115 | 37 | 180 | 1.0 | 7.0 | 0.00 | 0.00 | 0.00 | 94 | 851.1 |
| 20260506223615 | 37 | 202 | 0.0 | 10.0 | 0.00 | 0.00 | 0.00 | 94 | 851.3 |
| 20260506223115 | 37 | 180 | 10.0 | 10.0 | 0.00 | 0.00 | 0.00 | 94 | 851.2 |
| 20260506222615 | 37 | 337 | 0.0 | 7.0 | 0.00 | 0.00 | 0.00 | 95 | 851.2 |
| 20260506222115 | 37 | 202 | 0.0 | 6.0 | 0.00 | 0.00 | 0.00 | 95 | 851.1 |
| 20260506221615 | 37 | 337 | 0.0 | 0.0 | 0.00 | 0.00 | 0.00 | 95 | 851.1 |
| 20260506221115 | 37 | 315 | 1.0 | 6.0 | 0.00 | 0.00 | 0.00 | 94 | 851.2 |
| 20260506220615 | 37 | 180 | 2.0 | 6.0 | 0.00 | 0.00 | 0.00 | 94 | 851.2 |
| 20260506220115 | 37 | 292 | 0.0 | 11.0 | 0.00 | 0.00 | 0.00 | 94 | 851.2 |
| 20260506215615 | 37 | 292 | 0.0 | 0.0 | 0.00 | 0.00 | 0.00 | 94 | 851.3 |
| 20260506215115 | 37 | 112 | 5.0 | 7.0 | 0.00 | 0.00 | 0.00 | 94 | 851.2 |
| 20260506214615 | 37 | 45 | 1.0 | 8.0 | 0.00 | 0.00 | 0.00 | 94 | 851.1 |
| 20260506214115 | 37 | 0 | 0.0 | 7.0 | 0.00 | 0.00 | 0.00 | 94 | 851.1 |
| 20260506213615 | 37 | 315 | 0.0 | 10.0 | 0.00 | 0.00 | 0.00 | 94 | 851.3 |
| 20260506213115 | 37 | 180 | 7.0 | 7.0 | 0.00 | 0.00 | 0.00 | 94 | 851.3 |
| 20260506212615 | 38 | 180 | 0.0 | 6.0 | 0.00 | 0.00 | 0.00 | 94 | 851.4 |
| 20260506212115 | 38 | 337 | 0.0 | 0.0 | 0.00 | 0.00 | 0.00 | 94 | 851.4 |
| 20260506211615 | 38 | 315 | 0.0 | 4.0 | 0.00 | 0.00 | 0.00 | 94 | 851.4 |
| 20260506211115 | 38 | 157 | 0.0 | 5.0 | 0.00 | 0.00 | 0.00 | 94 | 851.4 |
| 20260506210615 | 38 | 337 | 0.0 | 3.0 | 0.00 | 0.00 | 0.00 | 94 | 851.3 |
| 20260506210115 | 38 | 135 | 0.0 | 0.0 | 0.00 | 0.00 | 0.00 | 94 | 851.4 |
| 20260506205615 | 38 | 337 | 0.0 | 4.0 | 0.00 | 0.00 | 0.00 | 94 | 851.4 |
| 20260506205115 | 38 | 202 | 0.0 | 3.0 | 0.00 | 0.00 | 0.00 | 94 | 851.4 |
| 20260506204615 | 38 | 180 | 0.0 | 4.0 | 0.00 | 0.00 | 0.00 | 94 | 851.4 |
| 20260506204115 | 38 | 315 | 0.0 | 0.0 | 0.00 | 0.00 | 0.00 | 94 | 851.3 |
| 20260506203615 | 38 | 247 | 0.0 | 0.0 | 0.00 | 0.00 | 0.00 | 94 | 851.3 |
| 20260506203115 | 38 | 315 | 0.0 | 7.0 | 0.00 | 0.00 | 0.00 | 94 | 851.1 |
| 20260506202615 | 38 | 315 | 0.0 | 1.0 | 0.00 | 0.00 | 0.00 | 94 | 851.1 |
| 20260506202115 | 38 | 337 | 0.0 | 3.0 | 0.00 | 0.00 | 0.00 | 94 | 851.1 |
| 20260506201615 | 38 | 247 | 0.0 | 6.0 | 0.00 | 0.00 | 0.00 | 94 | 851.3 |
| 20260506201115 | 38 | 180 | 0.0 | 1.0 | 0.00 | 0.00 | 0.00 | 94 | 851.2 |
| 20260506200615 | 38 | 180 | 0.0 | 0.0 | 0.00 | 0.00 | 0.00 | 94 | 851.0 |
| 20260506200115 | 38 | 337 | 0.0 | 4.0 | 0.00 | 0.00 | 0.00 | 94 | 851.0 |
| 20260506195615 | 38 | 45 | 0.0 | 4.0 | 0.00 | 0.00 | 0.00 | 94 | 851.0 |
| 20260506195115 | 38 | 0 | 0.0 | 6.0 | 0.00 | 0.00 | 0.00 | 94 | 851.0 |
| 20260506194615 | 38 | 135 | 0.0 | 8.0 | 0.00 | 0.00 | 0.00 | 94 | 850.9 |
| 20260506194115 | 38 | 202 | 3.0 | 4.0 | 0.00 | 0.00 | 0.00 | 94 | 850.7 |
| 20260506193615 | 38 | 22 | 0.0 | 6.0 | 0.00 | 0.00 | 0.00 | 94 | 850.8 |
| 20260506193115 | 38 | 202 | 3.0 | 4.0 | 0.00 | 0.00 | 0.00 | 94 | 850.8 |
| 20260506192615 | 38 | 180 | 0.0 | 5.0 | 0.00 | 0.00 | 0.00 | 93 | 850.9 |
| 20260506192115 | 38 | 67 | 0.0 | 9.0 | 0.00 | 0.00 | 0.00 | 93 | 850.9 |
| 20260506191615 | 38 | 0 | 4.0 | 8.0 | 0.00 | 0.00 | 0.00 | 93 | 850.7 |
| 20260506191115 | 38 | 67 | 2.0 | 12.0 | 0.00 | 0.00 | 0.00 | 93 | 850.6 |
| 20260506190615 | 38 | 180 | 2.0 | 7.0 | 0.00 | 0.00 | 0.00 | 93 | 850.5 |
| 20260506190115 | 38 | 157 | 1.0 | 9.0 | 0.00 | 0.00 | 0.00 | 93 | 850.6 |
| 20260506185615 | 38 | 315 | 0.0 | 1.0 | 0.00 | 0.00 | 0.00 | 93 | 850.6 |
| 20260506185115 | 38 | 270 | 0.0 | 0.0 | 0.00 | 0.00 | 0.00 | 93 | 850.7 |
| 20260506184615 | 38 | 0 | 0.0 | 0.0 | 0.00 | 0.00 | 0.00 | 93 | 850.8 |
| 20260506184115 | 39 | 337 | 0.0 | 1.0 | 0.00 | 0.00 | 0.00 | 94 | 850.6 |
| 20260506183615 | 39 | 135 | 0.0 | 1.0 | 0.00 | 0.00 | 0.00 | 93 | 850.6 |
| 20260506183115 | 39 | 315 | 0.0 | 0.0 | 0.00 | 0.00 | 0.00 | 93 | 850.7 |
| 20260506182615 | 39 | 292 | 0.0 | 0.0 | 0.00 | 0.00 | 0.00 | 93 | 850.7 |
| 20260506182115 | 39 | 180 | 0.0 | 0.0 | 0.00 | 0.00 | 0.00 | 93 | 850.6 |
| 20260506181615 | 39 | 180 | 0.0 | 2.0 | 0.00 | 0.00 | 0.00 | 93 | 850.6 |
| 20260506181115 | 39 | 180 | 0.0 | 1.0 | 0.00 | 0.00 | 0.00 | 93 | 850.7 |
| 20260506180615 | 39 | 337 | 0.0 | 2.0 | 0.00 | 0.00 | 0.00 | 93 | 850.6 |
| 20260506180115 | 39 | 112 | 2.0 | 5.0 | 0.00 | 0.00 | 0.00 | 93 | 850.5 |
| 20260506175615 | 39 | 202 | 0.0 | 1.0 | 0.00 | 0.00 | 0.00 | 93 | 850.6 |
| 20260506175115 | 39 | 270 | 0.0 | 7.0 | 0.00 | 0.00 | 0.00 | 93 | 850.5 |
| 20260506174615 | 40 | 22 | 2.0 | 5.0 | 0.00 | 0.00 | 0.00 | 93 | 850.5 |
| 20260506174115 | 40 | 157 | 0.0 | 5.0 | 0.00 | 0.00 | 0.00 | 93 | 850.6 |
| 20260506173615 | 40 | 337 | 0.0 | 5.0 | 0.00 | 0.00 | 0.00 | 93 | 850.4 |
| 20260506173115 | 40 | 180 | 6.0 | 6.0 | 0.00 | 0.00 | 0.00 | 92 | 850.4 |
| 20260506172615 | 40 | 67 | 0.0 | 4.0 | 0.00 | 0.00 | 0.00 | 92 | 850.4 |
| 20260506172115 | 40 | 225 | 0.0 | 5.0 | 0.00 | 0.00 | 0.00 | 91 | 850.2 |
| 20260506171615 | 40 | 180 | 2.0 | 2.0 | 0.00 | 0.00 | 0.00 | 91 | 850.3 |
| 20260506171115 | 40 | 180 | 0.0 | 0.0 | 0.00 | 0.00 | 0.00 | 90 | 850.3 |
| 20260506170615 | 41 | 157 | 0.0 | 2.0 | 0.00 | 0.00 | 0.00 | 90 | 850.2 |
| 20260506170115 | 40 | 180 | 0.0 | 0.0 | 0.00 | 0.00 | 0.00 | 90 | 850.1 |
| 20260506165615 | 40 | 337 | 0.0 | 10.0 | 0.00 | 0.00 | 0.00 | 90 | 850.0 |
| 20260506165115 | 40 | 112 | 0.0 | 6.0 | 0.00 | 0.00 | 0.00 | 90 | 850.1 |
| 20260506164615 | 40 | 180 | 6.0 | 7.0 | 0.00 | 0.00 | 0.00 | 90 | 850.0 |
| 20260506164115 | 41 | 180 | 0.0 | 2.0 | 0.00 | 0.00 | 0.00 | 90 | 850.0 |
| 20260506163615 | 41 | 180 | 0.0 | 2.0 | 0.00 | 0.00 | 0.00 | 90 | 849.9 |
| 20260506163115 | 41 | 22 | 0.0 | 0.0 | 0.00 | 0.00 | 0.00 | 91 | 849.9 |
| 20260506162615 | 41 | 315 | 0.0 | 7.0 | 0.00 | 0.00 | 0.00 | 91 | 849.9 |
| 20260506162115 | 41 | 180 | 3.0 | 5.0 | 0.00 | 0.00 | 0.00 | 92 | 850.0 |
| 20260506161615 | 41 | 337 | 0.0 | 4.0 | 0.00 | 0.00 | 0.00 | 92 | 850.0 |
| 20260506161115 | 41 | 180 | 0.0 | 1.0 | 0.00 | 0.00 | 0.00 | 92 | 850.1 |
| 20260506160615 | 41 | 180 | 1.0 | 1.0 | 0.00 | 0.00 | 0.00 | 93 | 850.1 |
| 20260506160115 | 41 | 180 | 0.0 | 2.0 | 0.00 | 0.00 | 0.00 | 93 | 850.0 |
| 20260506155615 | 41 | 202 | 0.0 | 3.0 | 0.00 | 0.00 | 0.00 | 92 | 850.1 |
| 20260506155115 | 41 | 337 | 0.0 | 5.0 | 0.00 | 0.00 | 0.00 | 92 | 850.2 |
| 20260506154615 | 42 | 180 | 2.0 | 4.0 | 0.00 | 0.00 | 0.00 | 92 | 850.1 |
| 20260506154115 | 42 | 180 | 0.0 | 1.0 | 0.00 | 0.00 | 0.00 | 91 | 850.1 |
| 20260506153615 | 42 | 180 | 1.0 | 3.0 | 0.00 | 0.00 | 0.00 | 91 | 850.1 |
| 20260506153115 | 43 | 180 | 0.0 | 4.0 | 0.00 | 0.00 | 0.00 | 91 | 850.2 |
| 20260506152615 | 43 | 180 | 2.0 | 4.0 | 0.00 | 0.00 | 0.00 | 90 | 850.1 |
| 20260506152115 | 43 | 180 | 0.0 | 0.0 | 0.00 | 0.00 | 0.00 | 91 | 849.9 |
| 20260506151615 | 43 | 135 | 0.0 | 0.0 | 0.00 | 0.00 | 0.00 | 91 | 849.9 |
| 20260506151115 | 43 | 270 | 0.0 | 2.0 | 0.00 | 0.00 | 0.00 | 92 | 849.8 |
| 20260506150615 | 43 | 202 | 0.0 | 0.0 | 0.00 | 0.00 | 0.00 | 92 | 850.1 |
| 20260506150115 | 43 | 315 | 0.0 | 0.0 | 0.00 | 0.00 | 0.00 | 92 | 849.9 |
| 20260506145615 | 43 | 337 | 0.0 | 5.0 | 0.00 | 0.00 | 0.00 | 93 | 849.9 |
| 20260506145115 | 43 | 247 | 0.0 | 0.0 | 0.00 | 0.00 | 0.00 | 93 | 849.9 |
| 20260506144615 | 43 | 135 | 0.0 | 1.0 | 0.00 | 0.00 | 0.00 | 93 | 849.9 |
| 20260506144115 | 43 | 135 | 0.0 | 4.0 | 0.00 | 0.00 | 0.00 | 94 | 849.8 |
| 20260506143615 | 43 | 202 | 0.0 | 8.0 | 0.00 | 0.00 | 0.00 | 94 | 849.9 |
| 20260506143115 | 42 | 180 | 3.0 | 3.0 | 0.00 | 0.00 | 0.00 | 94 | 849.8 |
| 20260506142615 | 42 | 0 | 0.0 | 8.0 | 0.00 | 0.00 | 0.00 | 95 | 849.8 |
| 20260506142115 | 41 | 202 | 0.0 | 0.0 | 0.00 | 0.00 | 0.00 | 95 | 849.9 |
| 20260506141615 | 41 | 315 | 0.0 | 0.0 | 0.00 | 0.00 | 0.00 | 95 | 849.9 |
| 20260506141115 | 39 | 315 | 0.0 | 0.0 | 0.00 | 0.00 | 0.00 | 95 | 849.8 |
| 20260506140615 | 38 | 315 | 0.0 | 3.0 | 0.00 | 0.00 | 0.00 | 95 | 849.7 |
| 20260506140115 | 38 | 292 | 0.0 | 4.0 | 0.00 | 0.00 | 0.00 | 95 | 850.0 |
| 20260506135615 | 38 | 292 | 0.0 | 1.0 | 0.00 | 0.00 | 0.00 | 95 | 849.9 |
| 20260506135115 | 39 | 315 | 0.0 | 0.0 | 0.00 | 0.00 | 0.00 | 95 | 849.8 |
| 20260506134615 | 39 | 315 | 0.0 | 0.0 | 0.00 | 0.00 | 0.00 | 95 | 849.9 |
| 20260506134115 | 39 | 292 | 0.0 | 0.0 | 0.00 | 0.00 | 0.00 | 95 | 849.9 |
| 20260506133615 | 39 | 337 | 0.0 | 0.0 | 0.00 | 0.00 | 0.00 | 95 | 850.0 |
| 20260506133115 | 40 | 315 | 0.0 | 0.0 | 0.00 | 0.00 | 0.00 | 95 | 850.0 |
| 20260506132615 | 41 | 180 | 0.0 | 0.0 | 0.00 | 0.00 | 0.00 | 95 | 850.2 |
| 20260506132115 | 41 | 180 | 0.0 | 0.0 | 0.00 | 0.00 | 0.00 | 95 | 850.4 |
| 20260506131615 | 41 | 180 | 0.0 | 5.0 | 0.00 | 0.00 | 0.00 | 95 | 850.4 |
| 20260506131115 | 41 | 292 | 0.0 | 8.0 | 0.00 | 0.00 | 0.00 | 95 | 850.4 |
| 20260506130615 | 41 | 225 | 0.0 | 8.0 | 0.00 | 0.00 | 0.00 | 95 | 850.5 |
| 20260506130115 | 41 | 180 | 0.0 | 6.0 | 0.00 | 0.00 | 0.00 | 95 | 850.4 |
| 20260506125615 | 41 | 180 | 0.0 | 6.0 | 0.00 | 0.00 | 0.00 | 95 | 850.4 |
| 20260506125115 | 41 | 180 | 0.0 | 3.0 | 0.00 | 0.00 | 0.00 | 95 | 850.4 |
| 20260506124615 | 41 | 180 | 0.0 | 4.0 | 0.00 | 0.00 | 0.00 | 95 | 850.6 |
| 20260506124115 | 41 | 180 | 3.0 | 10.0 | 0.00 | 0.00 | 0.00 | 95 | 850.4 |
| 20260506123615 | 41 | 180 | 1.0 | 9.0 | 0.00 | 0.00 | 0.00 | 95 | 850.0 |
| 20260506123115 | 41 | 157 | 3.0 | 11.0 | 0.00 | 0.00 | 0.00 | 95 | 849.9 |
| 20260506122615 | 41 | 180 | 10.0 | 11.0 | 0.00 | 0.00 | 0.00 | 95 | 849.8 |
| 20260506122115 | 41 | 225 | 7.0 | 11.0 | 0.00 | 0.00 | 0.00 | 95 | 849.8 |
| 20260506121616 | 41 | 180 | 4.0 | 8.0 | 0.00 | 0.00 | 0.00 | 95 | 849.8 |
| 20260506121116 | 41 | 180 | 7.0 | 11.0 | 0.00 | 0.00 | 0.00 | 95 | 850.1 |
| 20260506120616 | 41 | 202 | 0.0 | 12.0 | 0.00 | 0.00 | 0.00 | 95 | 849.9 |
| 20260506120116 | 41 | 180 | 0.0 | 9.0 | 0.00 | 0.00 | 0.00 | 95 | 850.0 |
| 20260506115616 | 41 | 180 | 0.0 | 8.0 | 0.00 | 0.00 | 0.00 | 95 | 849.8 |